Previsão horária em Abakonovo

Hoje, 12 Abril, Segunda-feira

Tempo Temperatura Precipitação Vento Pressão Humidade
00:00 +7°C° 0 mm 2 m/s 753 mmHg 83%
01:00 +7°C° 0 mm 2 m/s 754 mmHg 83%
02:00 +6°C° 0 mm 2 m/s 754 mmHg 83%
03:00 +6°C° 0 mm 2 m/s 754 mmHg 84%
04:00 +5°C° 0 mm 2 m/s 754 mmHg 86%
05:00 +5°C° 0 mm 2 m/s 754 mmHg 87%
06:00 +6°C° 0 mm 2 m/s 754 mmHg 79%
07:00 +8°C° 0 mm 3 m/s 754 mmHg 71%
08:00 +10°C° 0 mm 3 m/s 754 mmHg 63%
09:00 +11°C° 0 mm 4 m/s 754 mmHg 57%
10:00 +13°C° 0 mm 4 m/s 753 mmHg 50%
11:00 +14°C° 0 mm 4 m/s 753 mmHg 43%
12:00 +15°C° 0 mm 4 m/s 753 mmHg 40%
13:00 +15°C° 0 mm 4 m/s 752 mmHg 38%
14:00 +16°C° 0 mm 5 m/s 751 mmHg 35%
15:00 +15°C° 0 mm 4 m/s 751 mmHg 38%
16:00 +15°C° 0 mm 4 m/s 751 mmHg 40%
17:00 +14°C° 0 mm 4 m/s 750 mmHg 42%
18:00 +13°C° 0 mm 4 m/s 750 mmHg 50%
19:00 +11°C° 0 mm 4 m/s 750 mmHg 57%
20:00 +10°C° 0 mm 4 m/s 750 mmHg 65%
21:00 +10°C° 0 mm 3 m/s 750 mmHg 72%
22:00 +9°C° 0 mm 3 m/s 750 mmHg 80%
23:00 +8°C° 0 mm 3 m/s 750 mmHg 87%

Amanhã, 13 Abril, Terça-feira

Tempo Temperatura Precipitação Vento Pressão Humidade
00:00 +8°C° 0.3 mm 2 m/s 749 mmHg 90%
01:00 +8°C° 0.3 mm 2 m/s 749 mmHg 93%
02:00 +8°C° 0.3 mm 2 m/s 749 mmHg 95%
03:00 +8°C° 0.1 mm 2 m/s 749 mmHg 95%
04:00 +8°C° 0.1 mm 2 m/s 749 mmHg 96%
05:00 +8°C° 0.1 mm 2 m/s 748 mmHg 96%
06:00 +9°C° 0 mm 1 m/s 748 mmHg 94%
07:00 +10°C° 0 mm 1 m/s 748 mmHg 91%
08:00 +10°C° 0 mm 1 m/s 748 mmHg 89%
09:00 +11°C° 0 mm 1 m/s 748 mmHg 87%
10:00 +11°C° 0 mm 1 m/s 748 mmHg 86%
11:00 +12°C° 0 mm 2 m/s 748 mmHg 84%
12:00 +13°C° 0 mm 2 m/s 748 mmHg 78%
13:00 +15°C° 0 mm 2 m/s 748 mmHg 72%
14:00 +16°C° 0 mm 2 m/s 748 mmHg 67%
15:00 +16°C° 0.2 mm 2 m/s 748 mmHg 70%
16:00 +15°C° 0.2 mm 1 m/s 747 mmHg 74%
17:00 +15°C° 0.2 mm 1 m/s 747 mmHg 78%
18:00 +14°C° 0.5 mm 1 m/s 747 mmHg 82%
19:00 +13°C° 0.5 mm 1 m/s 747 mmHg 87%
20:00 +12°C° 0.5 mm 1 m/s 747 mmHg 92%
21:00 +12°C° 0.4 mm 1 m/s 747 mmHg 93%
22:00 +11°C° 0.4 mm 1 m/s 747 mmHg 94%
23:00 +11°C° 0.4 mm 1 m/s 747 mmHg 95%

Depois de amanhã, 14 Abril, Quarta-feira

Tempo Temperatura Precipitação Vento Pressão Humidade
00:00 +11°C° 0.1 mm 1 m/s 747 mmHg 95%
01:00 +10°C° 0.1 mm 1 m/s 746 mmHg 95%
02:00 +10°C° 0.1 mm 1 m/s 746 mmHg 95%
03:00 +10°C° 0 mm 1 m/s 746 mmHg 95%
04:00 +10°C° 0 mm 1 m/s 745 mmHg 95%
05:00 +10°C° 0 mm 1 m/s 745 mmHg 95%
06:00 +10°C° 0 mm 1 m/s 745 mmHg 92%
07:00 +11°C° 0 mm 1 m/s 745 mmHg 90%
08:00 +11°C° 0 mm 1 m/s 745 mmHg 87%
09:00 +12°C° 0.1 mm 1 m/s 745 mmHg 86%
10:00 +12°C° 0.1 mm 1 m/s 745 mmHg 85%
11:00 +12°C° 0.1 mm 1 m/s 745 mmHg 84%
12:00 +13°C° 0.1 mm 1 m/s 745 mmHg 80%
13:00 +14°C° 0.1 mm 1 m/s 745 mmHg 77%
14:00 +15°C° 0.1 mm 1 m/s 745 mmHg 73%
15:00 +13°C° 0.7 mm 2 m/s 745 mmHg 80%
16:00 +12°C° 0.7 mm 2 m/s 745 mmHg 86%
17:00 +10°C° 0.7 mm 2 m/s 745 mmHg 93%
18:00 +9°C° 0.1 mm 2 m/s 745 mmHg 93%
19:00 +8°C° 0.1 mm 3 m/s 745 mmHg 94%
20:00 +7°C° 0.1 mm 3 m/s 746 mmHg 94%
21:00 +7°C° 0.1 mm 3 m/s 746 mmHg 94%
22:00 +5°C° 0.1 mm 3 m/s 745 mmHg 95%
23:00 +5°C° 0.1 mm 3 m/s 745 mmHg 95%

15 Abril, Quinta-feira

Tempo Temperatura Precipitação Vento Pressão Humidade
00:00 +5°C° 0.4 mm 3 m/s 745 mmHg 95%
01:00 +5°C° 0.4 mm 3 m/s 745 mmHg 95%
02:00 +5°C° 0.4 mm 3 m/s 745 mmHg 96%
03:00 +5°C° 0.1 mm 3 m/s 745 mmHg 95%
04:00 +4°C° 0.1 mm 3 m/s 745 mmHg 95%
05:00 +4°C° 0.1 mm 3 m/s 745 mmHg 95%
06:00 +4°C° 0.1 mm 3 m/s 745 mmHg 95%
07:00 +5°C° 0.1 mm 3 m/s 745 mmHg 94%
08:00 +5°C° 0.1 mm 3 m/s 745 mmHg 93%
09:00 +5°C° 0 mm 3 m/s 745 mmHg 92%
10:00 +5°C° 0 mm 3 m/s 746 mmHg 91%
11:00 +5°C° 0 mm 3 m/s 746 mmHg 90%
12:00 +6°C° 0 mm 4 m/s 746 mmHg 88%
13:00 +7°C° 0 mm 4 m/s 746 mmHg 85%
14:00 +7°C° 0 mm 4 m/s 746 mmHg 83%
15:00 +6°C° 0 mm 4 m/s 746 mmHg 84%
16:00 +5°C° 0 mm 5 m/s 747 mmHg 86%
17:00 +5°C° 0 mm 5 m/s 747 mmHg 88%
18:00 +3°C° 0 mm 5 m/s 747 mmHg 89%
19:00 +2°C° 0 mm 5 m/s 748 mmHg 90%
20:00 +2°C° 0 mm 5 m/s 748 mmHg 91%
21:00 +2°C° 0 mm 5 m/s 749 mmHg 92%
22:00 +1°C° 0 mm 5 m/s 749 mmHg 93%
23:00 +1°C° 0 mm 5 m/s 749 mmHg 95%

16 Abril, Sexta-feira

Tempo Temperatura Precipitação Vento Pressão Humidade
00:00 +1°C° 0 mm 5 m/s 749 mmHg 91%
01:00 +1°C° 0 mm 5 m/s 749 mmHg 88%
02:00 +2°C° 0 mm 5 m/s 750 mmHg 85%
03:00 +1°C° 0 mm 5 m/s 750 mmHg 83%
04:00 +1°C° 0 mm 5 m/s 750 mmHg 82%
05:00 0°C° 0 mm 5 m/s 751 mmHg 80%
06:00 +1°C° 0 mm 6 m/s 751 mmHg 76%
07:00 +2°C° 0 mm 6 m/s 752 mmHg 72%
08:00 +2°C° 0 mm 6 m/s 752 mmHg 67%
09:00 +4°C° 0 mm 6 m/s 752 mmHg 59%
10:00 +5°C° 0 mm 6 m/s 753 mmHg 51%
11:00 +7°C° 0 mm 6 m/s 753 mmHg 43%
12:00 +8°C° 0 mm 6 m/s 753 mmHg 40%
13:00 +8°C° 0 mm 6 m/s 753 mmHg 38%
14:00 +9°C° 0 mm 6 m/s 753 mmHg 35%
15:00 +8°C° 0 mm 6 m/s 754 mmHg 37%
16:00 +8°C° 0 mm 5 m/s 754 mmHg 40%
17:00 +7°C° 0 mm 5 m/s 754 mmHg 42%
18:00 +6°C° 0 mm 4 m/s 754 mmHg 46%
19:00 +4°C° 0 mm 4 m/s 755 mmHg 51%
20:00 +3°C° 0 mm 4 m/s 755 mmHg 55%
21:00 +2°C° 0 mm 3 m/s 756 mmHg 59%
22:00 +1°C° 0 mm 3 m/s 756 mmHg 63%
23:00 +1°C° 0 mm 3 m/s 756 mmHg 67%

17 Abril, Sábado

Tempo Temperatura Precipitação Vento Pressão Humidade
00:00 0°C° 0 mm 3 m/s 756 mmHg 70%
01:00 -1°C° 0 mm 3 m/s 757 mmHg 74%
02:00 -1°C° 0 mm 3 m/s 757 mmHg 77%
03:00 -2°C° 0 mm 2 m/s 757 mmHg 78%
04:00 -2°C° 0 mm 2 m/s 757 mmHg 78%
05:00 -2°C° 0 mm 2 m/s 757 mmHg 78%
06:00 +1°C° 0 mm 2 m/s 757 mmHg 69%
07:00 +1°C° 0 mm 3 m/s 757 mmHg 59%
08:00 +3°C° 0 mm 3 m/s 758 mmHg 50%
09:00 +4°C° 0 mm 3 m/s 757 mmHg 44%
10:00 +7°C° 0 mm 3 m/s 757 mmHg 39%
11:00 +8°C° 0 mm 3 m/s 757 mmHg 33%
12:00 +9°C° 0 mm 3 m/s 757 mmHg 32%
13:00 +10°C° 0 mm 3 m/s 757 mmHg 31%
14:00 +10°C° 0 mm 3 m/s 757 mmHg 30%
15:00 +10°C° 0 mm 3 m/s 756 mmHg 34%
16:00 +10°C° 0 mm 3 m/s 756 mmHg 38%
17:00 +10°C° 0 mm 3 m/s 756 mmHg 41%
18:00 +8°C° 0 mm 2 m/s 756 mmHg 51%
19:00 +6°C° 0 mm 2 m/s 756 mmHg 60%
20:00 +4°C° 0 mm 2 m/s 756 mmHg 69%
21:00 +4°C° 0 mm 2 m/s 756 mmHg 73%
22:00 +3°C° 0 mm 2 m/s 756 mmHg 76%
23:00 +3°C° 0 mm 2 m/s 756 mmHg 79%
Mostrar mais